PKDIY WAHI-OEMA

Flight info

Callsign PKDIY
Flight time 3h 17m
Altitude 34000
Route CLP2F/WAHI11 CLP W17 BND W11 TKG M766 KAT P570 TVM UL425 ASPUX N315 SITOL DCT PUSON L883 KITUB DCT ASMIS Y511 ELONU
Aircraft B77W/H-SDE1E2E3FGHIJ4J5M1RWXY/LB1D1

Departure

Time 2026-04-23 13:28
Airport Yogyakarta International Airport (WAHI)

Arrival

Time 2026-04-23 16:46
Airport Prince Mohammad Bin Abdulaziz Airport (OEMA)
Time Latitude Longitude Altitude Speed Heading
2026-04-23 12:57 -7.90091 110.05789 43 ft 0 kts 21°
2026-04-23 13:17 -7.90113 110.05780 39 ft 4 kts 27°
2026-04-23 13:17 -7.90137 110.05768 39 ft 4 kts 20°
2026-04-23 13:18 -7.90156 110.05763 39 ft 3 kts 346°
2026-04-23 13:18 -7.90176 110.05770 39 ft 4 kts 320°
2026-04-23 13:18 -7.90188 110.05787 40 ft 4 kts 288°
2026-04-23 13:18 -7.90195 110.05808 39 ft 0 kts 290°
2026-04-23 13:21 -7.90192 110.05800 40 ft 4 kts 290°
2026-04-23 13:21 -7.90174 110.05750 40 ft 11 kts 290°
2026-04-23 13:21 -7.90147 110.05677 42 ft 11 kts 290°
2026-04-23 13:22 -7.90120 110.05604 42 ft 11 kts 290°
2026-04-23 13:22 -7.90092 110.05531 42 ft 11 kts 290°
2026-04-23 13:22 -7.90065 110.05459 42 ft 11 kts 290°
2026-04-23 13:22 -7.90038 110.05386 42 ft 11 kts 290°
2026-04-23 13:23 -7.90010 110.05313 42 ft 11 kts 290°
2026-04-23 13:23 -7.89983 110.05240 42 ft 11 kts 291°
2026-04-23 13:23 -7.89971 110.05167 42 ft 11 kts 246°
2026-04-23 13:23 -7.90039 110.05127 40 ft 13 kts 200°
2026-04-23 13:24 -7.90105 110.05060 35 ft 16 kts 274°
2026-04-23 13:24 -7.90070 110.04956 36 ft 16 kts 290°
2026-04-23 13:24 -7.90033 110.04853 36 ft 16 kts 290°
2026-04-23 13:24 -7.89995 110.04750 37 ft 16 kts 290°
2026-04-23 13:25 -7.89956 110.04647 39 ft 16 kts 290°
2026-04-23 13:25 -7.89919 110.04544 39 ft 16 kts 289°
2026-04-23 13:25 -7.89882 110.04441 37 ft 16 kts 290°
2026-04-23 13:25 -7.89854 110.04340 37 ft 12 kts 261°
2026-04-23 13:26 -7.89905 110.04315 38 ft 8 kts 166°
2026-04-23 13:26 -7.89959 110.04336 38 ft 8 kts 158°
2026-04-23 13:26 -7.90013 110.04358 39 ft 8 kts 156°
2026-04-23 13:26 -7.90048 110.04402 40 ft 8 kts 112°
2026-04-23 13:27 -7.90052 110.04412 40 ft 0 kts 112°
2026-04-23 13:27 -7.90086 110.04502 39 ft 45 kts 110°
2026-04-23 13:27 -7.90281 110.05035 34 ft 116 kts 110°
2026-04-23 13:27 -7.90632 110.05997 41 ft 173 kts 111°
2026-04-23 13:28 -7.91093 110.07227 327 ft 194 kts 110°
2026-04-23 13:28 -7.91549 110.08536 849 ft 202 kts 114°
2026-04-23 13:28 -7.92436 110.09611 1359 ft 208 kts 153°
2026-04-23 13:28 -7.93868 110.09824 1803 ft 218 kts 185°
2026-04-23 13:29 -7.95454 110.09627 1990 ft 242 kts 185°
2026-04-23 13:29 -7.97170 110.09484 2395 ft 255 kts 187°
2026-04-23 13:29 -7.98823 110.08753 2751 ft 269 kts 223°
2026-04-23 13:29 -7.99911 110.07210 3368 ft 275 kts 249°
2026-04-23 13:30 -8.00223 110.05318 4084 ft 274 kts 276°
2026-04-23 13:30 -7.99768 110.03453 4690 ft 276 kts 290°
2026-04-23 13:30 -7.99125 110.01613 5395 ft 278 kts 291°
2026-04-23 13:30 -7.98462 109.99779 6156 ft 279 kts 291°
2026-04-23 13:31 -7.97790 109.97928 6792 ft 283 kts 291°
2026-04-23 13:31 -7.97111 109.96054 7432 ft 286 kts 291°
2026-04-23 13:31 -7.96430 109.94160 8092 ft 289 kts 291°
2026-04-23 13:31 -7.95746 109.92246 8747 ft 292 kts 290°
2026-04-23 13:32 -7.95057 109.90309 9389 ft 294 kts 290°
2026-04-23 13:32 -7.94367 109.88358 10003 ft 297 kts 290°
2026-04-23 13:32 -7.93663 109.86366 10447 ft 309 kts 290°
2026-04-23 13:32 -7.92917 109.84253 10602 ft 331 kts 290°
2026-04-23 13:33 -7.92120 109.81991 10760 ft 353 kts 290°
2026-04-23 13:33 -7.91275 109.79589 10948 ft 373 kts 290°
2026-04-23 13:33 -7.90394 109.77085 11413 ft 384 kts 290°
2026-04-23 13:33 -7.89494 109.74521 12034 ft 391 kts 290°
2026-04-23 13:34 -7.88583 109.71928 12805 ft 394 kts 290°
2026-04-23 13:34 -7.87665 109.69316 13565 ft 397 kts 290°
2026-04-23 13:34 -7.86736 109.66673 14207 ft 402 kts 290°
2026-04-23 13:34 -7.85796 109.64002 14854 ft 406 kts 290°
2026-04-23 13:35 -7.84851 109.61312 15497 ft 409 kts 290°
2026-04-23 13:35 -7.83894 109.58593 16139 ft 413 kts 290°
2026-04-23 13:35 -7.82929 109.55851 16755 ft 417 kts 290°
2026-04-23 13:35 -7.81953 109.53079 17373 ft 421 kts 290°
2026-04-23 13:36 -7.80968 109.50284 17973 ft 425 kts 290°
2026-04-23 13:36 -7.79974 109.47461 18496 ft 429 kts 290°
2026-04-23 13:36 -7.78971 109.44614 19031 ft 433 kts 290°
2026-04-23 13:36 -7.77960 109.41745 19567 ft 436 kts 290°
2026-04-23 13:37 -7.76956 109.38894 20092 ft 439 kts 290°
2026-04-23 13:37 -7.75929 109.35981 20605 ft 442 kts 290°
2026-04-23 13:37 -7.74894 109.33047 21101 ft 446 kts 290°
2026-04-23 13:37 -7.73853 109.30095 21603 ft 449 kts 290°
2026-04-23 13:38 -7.72802 109.27114 22074 ft 453 kts 290°
2026-04-23 13:38 -7.71741 109.24109 22555 ft 456 kts 290°
2026-04-23 13:38 -7.70674 109.21085 23036 ft 460 kts 290°
2026-04-23 13:38 -7.69599 109.18040 23479 ft 463 kts 290°
2026-04-23 13:39 -7.68516 109.14973 23853 ft 466 kts 290°
2026-04-23 13:39 -7.67426 109.11884 24228 ft 469 kts 290°
2026-04-23 13:39 -7.66329 109.08778 24610 ft 472 kts 290°
2026-04-23 13:39 -7.65224 109.05651 24986 ft 475 kts 290°
2026-04-23 13:40 -7.64028 109.02542 25349 ft 477 kts 295°
2026-04-23 13:40 -7.62576 108.99531 25705 ft 479 kts 297°
2026-04-23 13:40 -7.61060 108.96525 26067 ft 482 kts 297°
2026-04-23 13:40 -7.59529 108.93517 26455 ft 484 kts 297°
2026-04-23 13:41 -7.57991 108.90488 26826 ft 486 kts 297°
2026-04-23 13:41 -7.56454 108.87446 27177 ft 489 kts 297°
2026-04-23 13:41 -7.54914 108.84380 27507 ft 492 kts 297°
2026-04-23 13:41 -7.53373 108.81299 27835 ft 494 kts 297°
2026-04-23 13:42 -7.51825 108.78199 28166 ft 497 kts 297°
2026-04-23 13:42 -7.50269 108.75078 28485 ft 499 kts 297°
2026-04-23 13:42 -7.48708 108.71947 28792 ft 501 kts 297°
2026-04-23 13:42 -7.47140 108.68803 29098 ft 503 kts 297°
2026-04-23 13:43 -7.45565 108.65647 29393 ft 505 kts 297°
2026-04-23 13:43 -7.43984 108.62482 29719 ft 506 kts 297°
2026-04-23 13:43 -7.42400 108.59310 30088 ft 506 kts 297°
2026-04-23 13:43 -7.40823 108.56153 30478 ft 504 kts 297°
2026-04-23 13:44 -7.39272 108.53049 30870 ft 502 kts 297°
2026-04-23 13:44 -7.37704 108.49913 31242 ft 501 kts 297°
2026-04-23 13:44 -7.36140 108.46784 31612 ft 500 kts 297°
2026-04-23 13:44 -7.34581 108.43666 31970 ft 499 kts 297°
2026-04-23 13:45 -7.33526 108.41557 32225 ft 498 kts 297°
2026-04-23 13:45 -7.31464 108.37436 32716 ft 497 kts 297°
2026-04-23 13:45 -7.29911 108.34333 33093 ft 495 kts 297°
2026-04-23 13:45 -7.28362 108.31239 33455 ft 494 kts 297°
2026-04-23 13:46 -7.26817 108.28151 33812 ft 493 kts 297°
2026-04-23 13:46 -7.23706 108.21939 33928 ft 498 kts 297°
2026-04-23 13:47 -7.20597 108.15733 33933 ft 493 kts 297°
2026-04-23 13:47 -7.17461 108.09474 33950 ft 491 kts 297°
2026-04-23 13:48 -6.96286 107.67278 33959 ft 487 kts 297°
2026-04-23 13:48 -6.74370 107.31571 34020 ft 501 kts 306°
2026-04-23 13:48 -6.65318 107.18794 33882 ft 500 kts 306°
2026-04-23 13:49 -6.49397 106.96231 33790 ft 491 kts 306°
2026-04-23 13:49 -6.27526 106.65321 33919 ft 489 kts 306°
2026-04-23 13:50 -6.07684 106.39840 33792 ft 499 kts 311°
2026-04-23 13:50 -5.72020 105.97856 33790 ft 487 kts 311°
2026-04-23 13:50 -5.54432 105.77152 33899 ft 490 kts 311°
2026-04-23 13:51 -5.43541 105.63915 33915 ft 498 kts 303°
2026-04-23 13:51 -5.36214 105.46849 33977 ft 504 kts 290°
2026-04-23 13:51 -5.26546 105.20877 33884 ft 500 kts 291°
2026-04-23 13:51 -5.15810 104.98168 33776 ft 489 kts 296°
2026-04-23 13:52 -5.04007 104.73676 33836 ft 484 kts 296°
2026-04-23 13:52 -4.92201 104.49164 33983 ft 493 kts 296°
2026-04-23 13:52 -4.80392 104.25046 34022 ft 505 kts 296°
2026-04-23 13:52 -4.67970 103.99735 33890 ft 501 kts 296°
2026-04-23 13:53 -4.55773 103.74902 33819 ft 489 kts 296°
2026-04-23 13:53 -4.31873 103.26300 34011 ft 493 kts 296°
2026-04-23 13:53 -4.19563 103.01313 34039 ft 506 kts 296°
2026-04-23 13:54 -4.07086 102.76006 33885 ft 504 kts 296°
2026-04-23 13:54 -3.83119 102.27469 33821 ft 488 kts 297°
2026-04-23 13:54 -3.70986 102.03021 33930 ft 493 kts 297°
2026-04-23 13:55 -3.58656 101.78185 33959 ft 503 kts 296°
2026-04-23 13:55 -3.34015 101.28600 33794 ft 492 kts 296°
2026-04-23 13:56 -3.09897 100.80111 33911 ft 488 kts 296°
2026-04-23 13:56 -2.85253 100.30665 33878 ft 499 kts 296°
2026-04-23 13:57 -2.60831 99.81696 33794 ft 487 kts 296°
2026-04-23 13:57 -2.48634 99.57273 33915 ft 494 kts 297°
2026-04-23 13:57 -2.37076 99.32945 33959 ft 507 kts 295°
2026-04-23 13:58 -2.13117 98.82245 33765 ft 495 kts 295°
2026-04-23 13:58 -1.93606 98.41025 33890 ft 489 kts 295°
2026-04-23 13:59 -1.70062 97.91307 33881 ft 495 kts 295°
2026-04-23 13:59 -1.58783 97.67504 33775 ft 484 kts 295°
2026-04-23 13:59 -1.47205 97.43824 33808 ft 479 kts 296°
2026-04-23 13:59 -1.35437 97.19709 33924 ft 486 kts 296°
2026-04-23 14:00 -1.27406 97.03247 34489 ft 497 kts 296°
2026-04-23 14:00 -1.25897 97.00159 34941 ft 492 kts 296°
2026-04-23 14:00 -1.24403 96.97106 35418 ft 487 kts 296°
2026-04-23 14:00 -1.22924 96.94081 35781 ft 484 kts 296°
2026-04-23 14:01 -1.21422 96.91011 35854 ft 488 kts 296°
2026-04-23 14:01 -1.10837 96.69342 35925 ft 492 kts 296°
2026-04-23 14:01 -1.04123 96.55603 35740 ft 478 kts 296°
2026-04-23 14:02 -1.00360 96.47900 35872 ft 481 kts 296°
2026-04-23 14:02 -0.87885 96.22380 35870 ft 497 kts 296°
2026-04-23 14:03 -0.66336 95.78302 35758 ft 487 kts 295°
2026-04-23 14:03 -0.50844 95.46599 35882 ft 482 kts 295°
2026-04-23 14:04 -0.37099 95.18485 35924 ft 494 kts 296°
2026-04-23 14:04 -0.14418 94.72096 35786 ft 493 kts 296°
2026-04-23 14:05 0.01613 94.39297 35865 ft 480 kts 295°
2026-04-23 14:05 0.19945 94.01788 35955 ft 492 kts 295°
2026-04-23 14:05 0.28184 93.84932 35854 ft 498 kts 295°
2026-04-23 14:06 0.39871 93.61008 35798 ft 494 kts 295°
2026-04-23 14:06 0.63541 93.12429 35819 ft 482 kts 296°
2026-04-23 14:06 0.75344 92.88207 35927 ft 488 kts 296°
2026-04-23 14:07 0.81498 92.75577 35951 ft 495 kts 296°
2026-04-23 14:07 1.03017 92.31396 35803 ft 494 kts 296°
2026-04-23 14:07 1.14933 92.06919 35781 ft 486 kts 296°
2026-04-23 14:08 1.38491 91.59419 35934 ft 490 kts 296°
2026-04-23 14:08 1.56714 91.22749 35838 ft 500 kts 296°
2026-04-23 14:09 1.77052 90.81811 35779 ft 487 kts 296°
2026-04-23 14:09 1.85204 90.65392 35883 ft 483 kts 296°
2026-04-23 14:09 1.97207 90.41211 35936 ft 489 kts 296°
2026-04-23 14:10 2.13598 90.08169 35852 ft 502 kts 296°
2026-04-23 14:10 2.37741 89.59450 35772 ft 488 kts 296°
2026-04-23 14:11 2.53866 89.26848 35935 ft 490 kts 296°
2026-04-23 14:11 2.68630 88.96972 35865 ft 502 kts 296°
2026-04-23 14:12 2.90504 88.52673 35760 ft 489 kts 296°
2026-04-23 14:12 3.09075 88.17083 35898 ft 486 kts 297°
2026-04-23 14:13 3.28812 87.79526 35885 ft 500 kts 297°
2026-04-23 14:13 3.53108 87.31003 35775 ft 487 kts 296°
2026-04-23 14:14 3.71518 86.93995 35922 ft 485 kts 296°
2026-04-23 14:14 3.87159 86.62506 35870 ft 499 kts 296°
2026-04-23 14:15 4.11775 86.12880 35782 ft 490 kts 295°
2026-04-23 14:15 4.32612 85.70792 35899 ft 485 kts 295°
2026-04-23 14:16 4.49243 85.37154 35869 ft 498 kts 295°
2026-04-23 14:16 4.73656 84.87691 35778 ft 487 kts 295°
2026-04-23 14:17 4.91935 84.50583 35908 ft 484 kts 295°
2026-04-23 14:17 5.13012 84.07717 35889 ft 499 kts 295°
2026-04-23 14:18 5.34230 83.63280 35761 ft 488 kts 294°
2026-04-23 14:18 5.54288 83.20967 35931 ft 489 kts 294°
2026-04-23 14:19 5.69271 82.89292 35854 ft 501 kts 294°
2026-04-23 14:19 5.91442 82.42328 35750 ft 488 kts 293°
2026-04-23 14:20 6.12779 81.96999 35921 ft 488 kts 293°
2026-04-23 14:20 6.28349 81.64174 35852 ft 499 kts 294°
2026-04-23 14:21 6.48118 81.24269 35756 ft 487 kts 295°
2026-04-23 14:21 6.59051 81.02430 35878 ft 482 kts 295°
2026-04-23 14:21 6.71153 80.78289 35988 ft 488 kts 295°
2026-04-23 14:22 6.87934 80.44294 35893 ft 502 kts 294°
2026-04-23 14:22 7.12507 79.94249 35741 ft 491 kts 293°
2026-04-23 14:23 7.35653 79.45691 35890 ft 494 kts 292°
2026-04-23 14:23 7.50319 79.14692 35811 ft 505 kts 292°
2026-04-23 14:24 7.56879 78.99957 35829 ft 495 kts 289°
2026-04-23 14:24 7.59526 78.93588 35829 ft 492 kts 289°
2026-04-23 14:25 7.62209 78.87261 35833 ft 491 kts 289°
2026-04-23 14:25 7.64919 78.80948 35833 ft 490 kts 289°
2026-04-23 14:26 7.67633 78.74635 35835 ft 491 kts 289°
2026-04-23 14:26 7.70349 78.68311 35835 ft 492 kts 289°
2026-04-23 14:27 7.73068 78.61972 35833 ft 493 kts 289°
2026-04-23 14:27 7.75791 78.55620 35830 ft 494 kts 289°
2026-04-23 14:28 7.78517 78.49258 35833 ft 494 kts 289°
2026-04-23 14:28 7.81243 78.42892 35833 ft 494 kts 289°
2026-04-23 14:29 7.83968 78.36526 35831 ft 494 kts 289°
2026-04-23 14:29 7.86689 78.30167 35830 ft 494 kts 289°
2026-04-23 14:30 7.89408 78.23807 35825 ft 493 kts 289°
2026-04-23 14:30 7.92121 78.17460 35830 ft 493 kts 289°
2026-04-23 14:31 7.94866 78.11128 35825 ft 493 kts 290°
2026-04-23 14:31 7.97684 78.04829 35831 ft 492 kts 290°
2026-04-23 14:32 8.00485 77.98576 35827 ft 492 kts 290°
2026-04-23 14:32 8.03291 77.92277 35831 ft 492 kts 290°
2026-04-23 14:33 8.06089 77.85979 35827 ft 492 kts 290°
2026-04-23 14:33 8.08882 77.79687 35827 ft 492 kts 290°
2026-04-23 14:34 8.11678 77.73388 35826 ft 491 kts 290°
2026-04-23 14:34 8.14468 77.67098 35825 ft 491 kts 289°
2026-04-23 14:35 8.17260 77.60803 35824 ft 491 kts 289°
2026-04-23 14:35 8.20046 77.54518 35825 ft 491 kts 289°
2026-04-23 14:36 8.22836 77.48220 35821 ft 491 kts 289°
2026-04-23 14:36 8.25621 77.41928 35829 ft 491 kts 289°
2026-04-23 14:37 8.28401 77.35646 35830 ft 490 kts 289°
2026-04-23 14:37 8.31178 77.29370 35831 ft 489 kts 289°
2026-04-23 14:38 8.33950 77.23101 35823 ft 489 kts 289°
2026-04-23 14:38 8.36720 77.16831 35828 ft 488 kts 289°
2026-04-23 14:39 8.39484 77.10572 35825 ft 488 kts 289°
2026-04-23 14:39 8.42248 77.04311 35829 ft 488 kts 289°
2026-04-23 14:40 8.45008 76.98054 35831 ft 488 kts 289°
2026-04-23 14:40 8.47731 76.91787 35826 ft 486 kts 286°
2026-04-23 14:41 8.49923 76.85410 35838 ft 483 kts 284°
2026-04-23 14:41 8.52034 76.78962 35830 ft 484 kts 284°
2026-04-23 14:42 8.54160 76.72510 35823 ft 484 kts 284°
2026-04-23 14:42 8.56310 76.66054 35822 ft 485 kts 284°
2026-04-23 14:43 8.58468 76.59596 35818 ft 485 kts 284°
2026-04-23 14:43 8.60626 76.53136 35822 ft 485 kts 284°
2026-04-23 14:44 8.62783 76.46670 35820 ft 486 kts 284°
2026-04-23 14:44 8.64575 76.41293 35821 ft 486 kts 284°
2026-04-23 14:45 8.66731 76.34822 35823 ft 486 kts 284°
2026-04-23 14:45 8.68886 76.28349 35823 ft 486 kts 284°
2026-04-23 14:46 8.71037 76.21883 35827 ft 486 kts 284°
2026-04-23 14:46 8.73188 76.15416 35827 ft 485 kts 284°
2026-04-23 14:47 8.75338 76.08944 35836 ft 485 kts 284°
2026-04-23 14:47 8.77486 76.02475 35834 ft 485 kts 284°
2026-04-23 14:48 8.79620 75.96046 35837 ft 486 kts 284°
2026-04-23 14:48 8.81766 75.89575 35836 ft 486 kts 284°
2026-04-23 14:49 8.83913 75.83098 35832 ft 486 kts 284°
2026-04-23 14:49 8.86058 75.76623 35835 ft 486 kts 284°
2026-04-23 14:50 8.88204 75.70141 35836 ft 486 kts 284°
2026-04-23 14:50 8.90349 75.63656 35833 ft 486 kts 284°
2026-04-23 14:51 8.92493 75.57172 35833 ft 486 kts 284°
2026-04-23 14:51 8.94637 75.50684 35831 ft 486 kts 284°
2026-04-23 14:52 8.96779 75.44197 35837 ft 486 kts 284°
2026-04-23 14:52 8.98918 75.37714 35831 ft 486 kts 284°
2026-04-23 14:53 9.01056 75.31230 35836 ft 486 kts 284°
2026-04-23 14:53 9.03191 75.24753 35834 ft 486 kts 284°
2026-04-23 14:54 9.05326 75.18271 35831 ft 485 kts 284°
2026-04-23 14:54 9.07457 75.11796 35830 ft 485 kts 284°
2026-04-23 14:55 9.09585 75.05325 35830 ft 485 kts 284°
2026-04-23 14:55 9.11711 74.98857 35826 ft 484 kts 284°
2026-04-23 14:56 9.13834 74.92393 35831 ft 484 kts 284°
2026-04-23 14:56 9.15954 74.85936 35827 ft 484 kts 284°
2026-04-23 14:57 9.18073 74.79477 35828 ft 483 kts 284°
2026-04-23 14:57 9.20189 74.73021 35827 ft 483 kts 284°
2026-04-23 14:58 9.22303 74.66568 35829 ft 483 kts 284°
2026-04-23 14:58 9.24415 74.60117 35828 ft 483 kts 284°
2026-04-23 14:59 9.26525 74.53668 35826 ft 483 kts 283°
2026-04-23 14:59 9.28632 74.47222 35826 ft 482 kts 283°
2026-04-23 15:00 9.30725 74.40817 35827 ft 482 kts 283°
2026-04-23 15:00 9.32828 74.34376 35828 ft 482 kts 283°
2026-04-23 15:01 9.34928 74.27940 35827 ft 481 kts 283°
2026-04-23 15:01 9.37028 74.21498 35831 ft 481 kts 283°
2026-04-23 15:02 9.39124 74.15066 35824 ft 481 kts 283°
2026-04-23 15:02 9.41217 74.08638 35827 ft 481 kts 283°
2026-04-23 15:03 9.43343 74.02214 35826 ft 481 kts 284°
2026-04-23 15:03 9.45481 73.95801 35830 ft 481 kts 284°
2026-04-23 15:04 9.47616 73.89383 35830 ft 481 kts 284°
2026-04-23 15:04 9.49745 73.82967 35821 ft 481 kts 284°
2026-04-23 15:05 9.51870 73.76552 35827 ft 480 kts 284°
2026-04-23 15:05 9.53994 73.70136 35825 ft 480 kts 284°
2026-04-23 15:06 9.56115 73.63725 35827 ft 480 kts 284°
2026-04-23 15:06 9.58234 73.57317 35825 ft 479 kts 283°
2026-04-23 15:07 9.60350 73.50915 35827 ft 479 kts 283°
2026-04-23 15:07 9.62463 73.44517 35827 ft 479 kts 283°
2026-04-23 15:08 9.70791 73.19255 35827 ft 477 kts 283°
2026-04-23 15:09 9.95561 72.43711 35833 ft 475 kts 284°
2026-04-23 15:09 10.05219 72.26969 35896 ft 485 kts 299°
2026-04-23 15:09 10.20411 72.04308 35867 ft 485 kts 298°
2026-04-23 15:10 10.45339 71.66499 35844 ft 484 kts 298°
2026-04-23 15:10 10.80180 71.13504 35832 ft 479 kts 298°
2026-04-23 15:11 11.09658 70.68459 35830 ft 477 kts 298°
2026-04-23 15:11 11.27094 70.41714 36553 ft 482 kts 298°
2026-04-23 15:11 11.28938 70.38887 37046 ft 476 kts 298°
2026-04-23 15:12 11.30761 70.36096 37627 ft 470 kts 298°
2026-04-23 15:12 11.32543 70.33363 37866 ft 471 kts 298°
2026-04-23 15:12 11.35677 70.28544 37863 ft 472 kts 298°
2026-04-23 15:13 11.63913 69.85037 37831 ft 469 kts 298°
2026-04-23 15:13 11.78205 69.62754 37763 ft 458 kts 298°
2026-04-23 15:13 11.92115 69.41022 37844 ft 457 kts 299°
2026-04-23 15:13 12.06098 69.19137 37949 ft 465 kts 299°
2026-04-23 15:14 12.09439 69.13902 37864 ft 469 kts 299°
2026-04-23 15:14 12.37741 68.69636 37804 ft 472 kts 300°
2026-04-23 15:15 12.65899 68.25473 37806 ft 457 kts 300°
2026-04-23 15:15 12.79808 68.03580 37917 ft 461 kts 301°
2026-04-23 15:15 12.90893 67.86212 37956 ft 469 kts 301°
2026-04-23 15:16 13.12333 67.52609 37824 ft 472 kts 301°
2026-04-23 15:16 13.40471 67.08287 37794 ft 456 kts 301°
2026-04-23 15:16 13.54284 66.86436 37910 ft 458 kts 301°
2026-04-23 15:17 13.67607 66.65318 37969 ft 467 kts 301°
2026-04-23 15:17 13.87615 66.33492 37823 ft 471 kts 301°
2026-04-23 15:18 14.15528 65.88910 37797 ft 453 kts 302°
2026-04-23 15:18 14.42857 65.45026 37962 ft 461 kts 302°
2026-04-23 15:19 14.70393 65.00789 37837 ft 465 kts 303°
2026-04-23 15:19 14.97896 64.56729 37816 ft 450 kts 303°
2026-04-23 15:19 15.11511 64.34821 37935 ft 455 kts 303°
2026-04-23 15:20 15.20585 64.20181 37972 ft 460 kts 303°
2026-04-23 15:20 15.30251 64.04565 37854 ft 465 kts 304°
2026-04-23 15:20 15.44126 63.82082 37822 ft 459 kts 304°
2026-04-23 15:21 15.70983 63.38386 37834 ft 443 kts 304°
2026-04-23 15:21 15.97697 62.94666 37978 ft 457 kts 304°
2026-04-23 15:22 16.24800 62.50023 37826 ft 450 kts 304°
2026-04-23 15:22 16.37978 62.28221 37799 ft 439 kts 304°
2026-04-23 15:22 16.50924 62.06745 37879 ft 438 kts 304°
2026-04-23 15:23 16.76739 61.63711 37950 ft 453 kts 304°
2026-04-23 15:23 17.03057 61.19552 37799 ft 438 kts 304°
2026-04-23 15:24 17.28333 60.76882 37938 ft 433 kts 304°
2026-04-23 15:24 17.54080 60.33128 37926 ft 446 kts 304°
2026-04-23 15:25 17.79381 59.90503 37793 ft 427 kts 307°
2026-04-23 15:25 18.01471 59.56103 37939 ft 431 kts 306°
2026-04-23 15:25 18.19529 59.27637 37945 ft 442 kts 306°
2026-04-23 15:26 18.33114 59.06134 37848 ft 438 kts 306°
2026-04-23 15:26 18.59431 58.64278 37828 ft 420 kts 305°
2026-04-23 15:27 18.78973 58.36130 37970 ft 426 kts 313°
2026-04-23 15:27 19.03347 58.07996 37869 ft 435 kts 312°
2026-04-23 15:28 19.35170 57.70926 37760 ft 420 kts 312°
2026-04-23 15:28 19.66478 57.34230 37919 ft 425 kts 311°
2026-04-23 15:29 19.98466 56.96501 37799 ft 429 kts 311°
2026-04-23 15:29 20.29072 56.60102 37767 ft 415 kts 310°
2026-04-23 15:30 20.58940 56.24180 37874 ft 430 kts 310°
2026-04-23 15:30 20.85422 55.92230 37753 ft 428 kts 309°
2026-04-23 15:31 21.20891 55.49290 37822 ft 417 kts 309°
2026-04-23 15:31 21.28147 55.35247 37819 ft 424 kts 283°
2026-04-23 15:32 21.36079 54.89686 37680 ft 424 kts 282°
2026-04-23 15:32 21.40474 54.64496 37760 ft 409 kts 282°
2026-04-23 15:33 21.48017 54.20725 37896 ft 423 kts 281°
2026-04-23 15:33 21.49334 54.13001 37779 ft 428 kts 281°
2026-04-23 15:33 21.53595 53.87894 37737 ft 426 kts 281°
2026-04-23 15:34 21.59373 53.53452 37701 ft 414 kts 281°
2026-04-23 15:34 21.60441 53.47024 37765 ft 413 kts 281°
2026-04-23 15:35 21.64393 53.23138 37759 ft 417 kts 280°
2026-04-23 15:35 21.68429 52.98521 37770 ft 420 kts 280°
2026-04-23 15:36 21.72454 52.73734 37766 ft 420 kts 280°
2026-04-23 15:36 21.76438 52.48957 37770 ft 420 kts 280°
2026-04-23 15:37 21.80383 52.24182 37763 ft 420 kts 279°
2026-04-23 15:37 21.84283 51.99444 37777 ft 419 kts 279°
2026-04-23 15:38 21.88144 51.74707 37784 ft 418 kts 279°
2026-04-23 15:38 21.91958 51.50022 37787 ft 418 kts 279°
2026-04-23 15:39 21.95727 51.25379 37799 ft 417 kts 279°
2026-04-23 15:39 21.99464 51.00684 37800 ft 417 kts 279°
2026-04-23 15:40 22.03161 50.76001 37800 ft 417 kts 279°
2026-04-23 15:40 22.06817 50.51334 37806 ft 417 kts 278°
2026-04-23 15:41 22.10435 50.26663 37805 ft 417 kts 278°
2026-04-23 15:41 22.14021 50.01937 37803 ft 417 kts 278°
2026-04-23 15:42 22.17567 49.77220 37812 ft 418 kts 278°
2026-04-23 15:42 22.21091 49.52385 37808 ft 418 kts 278°
2026-04-23 15:43 22.24573 49.27573 37807 ft 418 kts 278°
2026-04-23 15:43 22.28018 49.02739 37802 ft 418 kts 278°
2026-04-23 15:44 22.31424 48.77898 37797 ft 418 kts 278°
2026-04-23 15:44 22.34788 48.53082 37808 ft 418 kts 277°
2026-04-23 15:45 22.36341 48.41526 37806 ft 417 kts 277°
2026-04-23 15:45 22.37998 48.29121 37802 ft 417 kts 277°
2026-04-23 15:46 22.39645 48.16723 37804 ft 417 kts 277°
2026-04-23 15:46 22.41280 48.04335 37806 ft 416 kts 277°
2026-04-23 15:47 22.42907 47.91944 37804 ft 416 kts 277°
2026-04-23 15:47 22.44510 47.79649 37806 ft 416 kts 277°
2026-04-23 15:48 22.46111 47.67305 37809 ft 415 kts 277°
2026-04-23 15:48 22.47704 47.54936 37806 ft 415 kts 277°
2026-04-23 15:49 22.49289 47.42563 37808 ft 415 kts 277°
2026-04-23 15:49 22.51060 47.30233 37792 ft 416 kts 282°
2026-04-23 15:50 22.54897 47.18417 37817 ft 417 kts 288°
2026-04-23 15:50 22.59016 47.06715 37834 ft 416 kts 288°
2026-04-23 15:51 22.63097 46.95012 37842 ft 415 kts 288°
2026-04-23 15:51 22.67159 46.83330 37834 ft 414 kts 288°
2026-04-23 15:52 22.71206 46.71659 37845 ft 414 kts 288°
2026-04-23 15:52 22.75240 46.59993 37844 ft 413 kts 288°
2026-04-23 15:53 22.79260 46.48339 37848 ft 413 kts 287°
2026-04-23 15:53 22.82464 46.36488 37852 ft 409 kts 278°
2026-04-23 15:54 22.83451 46.24296 37830 ft 409 kts 274°
2026-04-23 15:54 22.84323 46.11983 37812 ft 410 kts 274°
2026-04-23 15:55 22.85215 45.99648 37801 ft 410 kts 274°
2026-04-23 15:55 22.86099 45.87308 37808 ft 411 kts 274°
2026-04-23 15:56 22.86974 45.74957 37799 ft 411 kts 274°
2026-04-23 15:56 22.87838 45.62613 37810 ft 411 kts 274°
2026-04-23 15:57 22.88695 45.50238 37811 ft 411 kts 274°
2026-04-23 15:57 22.89541 45.37873 37806 ft 411 kts 274°
2026-04-23 15:58 22.90379 45.25489 37805 ft 412 kts 273°
2026-04-23 15:58 22.91207 45.13108 37811 ft 411 kts 273°
2026-04-23 15:59 22.92026 45.00729 37802 ft 411 kts 273°
2026-04-23 15:59 22.92834 44.88357 37825 ft 411 kts 273°
2026-04-23 16:00 22.93634 44.75966 37832 ft 412 kts 273°
2026-04-23 16:00 22.95250 44.63659 37831 ft 415 kts 283°
2026-04-23 16:01 22.98935 44.51726 37836 ft 417 kts 285°
2026-04-23 16:01 23.02642 44.39776 37844 ft 418 kts 285°
2026-04-23 16:02 23.06323 44.27798 37846 ft 419 kts 285°
2026-04-23 16:02 23.09985 44.15851 37873 ft 420 kts 285°
2026-04-23 16:03 23.13668 44.03799 37873 ft 420 kts 284°
2026-04-23 16:03 23.17329 43.91785 37903 ft 418 kts 284°
2026-04-23 16:04 23.20966 43.79805 37903 ft 417 kts 284°
2026-04-23 16:04 23.24584 43.67855 37903 ft 416 kts 284°
2026-04-23 16:05 23.27583 43.57924 37914 ft 415 kts 284°
2026-04-23 16:05 23.31790 43.43989 37909 ft 414 kts 284°
2026-04-23 16:06 23.35337 43.32079 37931 ft 413 kts 284°
2026-04-23 16:06 23.38890 43.20198 37923 ft 412 kts 284°
2026-04-23 16:07 23.42413 43.08327 37933 ft 412 kts 284°
2026-04-23 16:07 23.45948 42.96466 37871 ft 412 kts 285°
2026-04-23 16:08 23.49429 42.84650 37908 ft 411 kts 284°
2026-04-23 16:08 23.52928 42.72762 37903 ft 412 kts 285°
2026-04-23 16:09 23.56413 42.60941 37911 ft 412 kts 283°
2026-04-23 16:09 23.59894 42.48918 37902 ft 414 kts 283°
2026-04-23 16:10 23.63424 42.36966 37875 ft 415 kts 285°
2026-04-23 16:10 23.66910 42.25004 37865 ft 414 kts 283°
2026-04-23 16:11 23.70387 42.13025 37883 ft 413 kts 283°
2026-04-23 16:11 23.73767 42.01100 37870 ft 412 kts 283°
2026-04-23 16:12 23.77273 41.89182 37853 ft 411 kts 284°
2026-04-23 16:12 23.80696 41.77304 37837 ft 409 kts 284°
2026-04-23 16:13 23.83174 41.68686 37841 ft 408 kts 282°
2026-04-23 16:13 23.84867 41.62696 36503 ft 407 kts 283°
2026-04-23 16:13 23.85722 41.59766 35976 ft 403 kts 283°
2026-04-23 16:14 23.86561 41.56864 35449 ft 400 kts 283°
2026-04-23 16:14 23.87391 41.53965 34905 ft 398 kts 283°
2026-04-23 16:14 23.88212 41.51088 34381 ft 396 kts 282°
2026-04-23 16:14 23.89021 41.48218 33850 ft 395 kts 282°
2026-04-23 16:15 23.89830 41.45355 33261 ft 394 kts 283°
2026-04-23 16:15 23.90635 41.42543 32730 ft 392 kts 283°
2026-04-23 16:15 23.91457 41.39678 32194 ft 389 kts 283°
2026-04-23 16:15 23.92199 41.37060 31726 ft 387 kts 283°
2026-04-23 16:16 23.92973 41.34292 31233 ft 385 kts 283°
2026-04-23 16:16 23.93775 41.31471 30732 ft 383 kts 284°
2026-04-23 16:16 23.94582 41.28698 30233 ft 382 kts 285°
2026-04-23 16:16 23.95370 41.25974 29704 ft 380 kts 285°
2026-04-23 16:17 23.96145 41.23220 29156 ft 377 kts 283°
2026-04-23 16:17 23.96900 41.20486 28618 ft 374 kts 283°
2026-04-23 16:17 23.97669 41.17779 28108 ft 371 kts 284°
2026-04-23 16:17 23.98439 41.15097 27611 ft 368 kts 284°
2026-04-23 16:18 23.99193 41.12454 27113 ft 365 kts 284°
2026-04-23 16:18 23.99943 41.09797 26643 ft 362 kts 284°
2026-04-23 16:18 24.00682 41.07172 26161 ft 360 kts 284°
2026-04-23 16:18 24.01413 41.04561 25691 ft 358 kts 283°
2026-04-23 16:19 24.02136 41.01967 25225 ft 356 kts 283°
2026-04-23 16:19 24.02623 41.00220 24924 ft 355 kts 283°
2026-04-23 16:19 24.03334 40.97680 24437 ft 354 kts 283°
2026-04-23 16:19 24.04065 40.95076 23961 ft 353 kts 283°
2026-04-23 16:20 24.04787 40.92512 23499 ft 352 kts 283°
2026-04-23 16:20 24.05509 40.89951 22984 ft 351 kts 282°
2026-04-23 16:20 24.06221 40.87402 22468 ft 349 kts 283°
2026-04-23 16:20 24.06932 40.84870 21997 ft 347 kts 283°
2026-04-23 16:21 24.07631 40.82384 21539 ft 345 kts 283°
2026-04-23 16:21 24.08333 40.79884 21077 ft 343 kts 283°
2026-04-23 16:21 24.09031 40.77394 20626 ft 341 kts 283°
2026-04-23 16:21 24.09725 40.74914 20186 ft 340 kts 283°
2026-04-23 16:22 24.10408 40.72445 19734 ft 339 kts 282°
2026-04-23 16:22 24.11092 40.69982 19293 ft 338 kts 283°
2026-04-23 16:22 24.11772 40.67524 18837 ft 337 kts 282°
2026-04-23 16:22 24.12451 40.65065 18373 ft 338 kts 282°
2026-04-23 16:23 24.13134 40.62603 17899 ft 338 kts 283°
2026-04-23 16:23 24.13819 40.60149 17399 ft 337 kts 283°
2026-04-23 16:23 24.14502 40.57702 16951 ft 335 kts 283°
2026-04-23 16:23 24.15181 40.55267 16504 ft 334 kts 283°
2026-04-23 16:24 24.16008 40.52894 16065 ft 336 kts 293°
2026-04-23 16:24 24.17246 40.50721 15764 ft 335 kts 302°
2026-04-23 16:24 24.18788 40.48804 15558 ft 338 kts 312°
2026-04-23 16:24 24.20542 40.47043 15345 ft 346 kts 314°
2026-04-23 16:25 24.22355 40.45274 15159 ft 351 kts 314°
2026-04-23 16:25 24.24181 40.43494 14942 ft 351 kts 314°
2026-04-23 16:25 24.25997 40.41716 14739 ft 349 kts 314°
2026-04-23 16:25 24.27792 40.39946 14611 ft 345 kts 314°
2026-04-23 16:26 24.29567 40.38186 14438 ft 344 kts 314°
2026-04-23 16:26 24.31333 40.36424 14249 ft 343 kts 313°
2026-04-23 16:26 24.33093 40.34664 14054 ft 343 kts 314°
2026-04-23 16:26 24.34852 40.32900 13861 ft 343 kts 314°
2026-04-23 16:27 24.36608 40.31138 13648 ft 343 kts 314°
2026-04-23 16:27 24.38367 40.29370 13428 ft 343 kts 314°
2026-04-23 16:27 24.40118 40.27602 13217 ft 342 kts 313°
2026-04-23 16:27 24.41867 40.25837 12998 ft 341 kts 314°
2026-04-23 16:28 24.43612 40.24084 12807 ft 340 kts 314°
2026-04-23 16:28 24.45355 40.22334 12594 ft 339 kts 314°
2026-04-23 16:28 24.47087 40.20592 12402 ft 338 kts 314°
2026-04-23 16:28 24.48815 40.18854 12207 ft 336 kts 314°
2026-04-23 16:29 24.50536 40.17120 12012 ft 335 kts 314°
2026-04-23 16:29 24.52248 40.15393 11813 ft 334 kts 314°
2026-04-23 16:29 24.53957 40.13668 11614 ft 333 kts 315°
2026-04-23 16:29 24.55659 40.11949 11417 ft 332 kts 315°
2026-04-23 16:30 24.57353 40.10238 11220 ft 330 kts 314°
2026-04-23 16:30 24.59042 40.08529 11035 ft 330 kts 315°
2026-04-23 16:30 24.60728 40.06822 10839 ft 329 kts 314°
2026-04-23 16:30 24.62409 40.05115 10662 ft 329 kts 315°
2026-04-23 16:31 24.64073 40.03437 10571 ft 320 kts 315°
2026-04-23 16:31 24.65684 40.01814 10502 ft 308 kts 315°
2026-04-23 16:31 24.67223 40.00264 10301 ft 292 kts 314°
2026-04-23 16:31 24.68705 39.98760 9965 ft 291 kts 314°
2026-04-23 16:32 24.70182 39.97261 9742 ft 287 kts 314°
2026-04-23 16:32 24.71633 39.95786 9501 ft 282 kts 315°
2026-04-23 16:32 24.73075 39.94332 9173 ft 281 kts 315°
2026-04-23 16:32 24.74514 39.92881 8829 ft 280 kts 315°
2026-04-23 16:33 24.75925 39.91450 8526 ft 279 kts 315°
2026-04-23 16:33 24.77350 39.90004 8207 ft 278 kts 315°
2026-04-23 16:33 24.78770 39.88563 7909 ft 277 kts 315°
2026-04-23 16:33 24.80180 39.87130 7597 ft 276 kts 315°
2026-04-23 16:34 24.81555 39.85731 7260 ft 265 kts 314°
2026-04-23 16:34 24.82914 39.84342 6907 ft 266 kts 315°
2026-04-23 16:34 24.84255 39.82972 6771 ft 261 kts 315°
2026-04-23 16:34 24.85576 39.81621 6517 ft 259 kts 315°
2026-04-23 16:35 24.86896 39.80276 6318 ft 257 kts 316°
2026-04-23 16:35 24.88209 39.78939 6321 ft 255 kts 315°
2026-04-23 16:35 24.89498 39.77623 6307 ft 250 kts 315°
2026-04-23 16:35 24.90771 39.76337 6303 ft 247 kts 315°
2026-04-23 16:36 24.92013 39.75035 6291 ft 244 kts 307°
2026-04-23 16:36 24.92703 39.73399 6317 ft 234 kts 276°
2026-04-23 16:36 24.92642 39.71622 6317 ft 232 kts 258°
2026-04-23 16:36 24.92325 39.69903 6298 ft 225 kts 257°
2026-04-23 16:37 24.92001 39.68289 6311 ft 213 kts 256°
2026-04-23 16:37 24.91691 39.66742 6293 ft 200 kts 257°
2026-04-23 16:37 24.91316 39.65273 6313 ft 200 kts 241°
2026-04-23 16:37 24.90359 39.64146 6312 ft 211 kts 213°
2026-04-23 16:38 24.88936 39.63669 6277 ft 220 kts 184°
2026-04-23 16:38 24.87433 39.63940 6231 ft 214 kts 172°
2026-04-23 16:38 24.86017 39.64252 6201 ft 201 kts 174°
2026-04-23 16:38 24.84726 39.64525 6176 ft 181 kts 172°
2026-04-23 16:39 24.83553 39.64782 6209 ft 167 kts 176°
2026-04-23 16:39 24.82415 39.65017 6194 ft 165 kts 177°
2026-04-23 16:39 24.81275 39.65258 6203 ft 170 kts 176°
2026-04-23 16:39 24.80084 39.65512 6088 ft 177 kts 174°
2026-04-23 16:40 24.78911 39.65771 5916 ft 166 kts 175°
2026-04-23 16:40 24.77798 39.66007 5774 ft 158 kts 175°
2026-04-23 16:40 24.76757 39.66229 5661 ft 149 kts 175°
2026-04-23 16:40 24.75772 39.66442 5566 ft 147 kts 176°
2026-04-23 16:41 24.74758 39.66661 5402 ft 148 kts 176°
2026-04-23 16:41 24.73749 39.66877 5214 ft 148 kts 176°
2026-04-23 16:41 24.72746 39.67093 5022 ft 146 kts 175°
2026-04-23 16:41 24.71739 39.67309 4867 ft 150 kts 176°
2026-04-23 16:42 24.70707 39.67529 4673 ft 151 kts 177°
2026-04-23 16:42 24.69691 39.67751 4459 ft 147 kts 178°
2026-04-23 16:42 24.68711 39.67960 4268 ft 141 kts 178°
2026-04-23 16:42 24.67745 39.68164 4111 ft 144 kts 178°
2026-04-23 16:43 24.66742 39.68380 3929 ft 149 kts 177°
2026-04-23 16:43 24.65748 39.68592 3738 ft 147 kts 178°
2026-04-23 16:43 24.64745 39.68808 3539 ft 147 kts 177°
2026-04-23 16:43 24.63750 39.69021 3369 ft 145 kts 177°
2026-04-23 16:44 24.62749 39.69232 3157 ft 148 kts 177°
2026-04-23 16:44 24.61741 39.69448 2985 ft 149 kts 174°
2026-04-23 16:44 24.60697 39.69674 2776 ft 157 kts 174°
2026-04-23 16:44 24.59655 39.69897 2557 ft 146 kts 176°
2026-04-23 16:45 24.58691 39.70098 2391 ft 137 kts 178°
2026-04-23 16:45 24.57746 39.70298 2210 ft 143 kts 176°
2026-04-23 16:45 24.56768 39.70527 2127 ft 139 kts 175°
2026-04-23 16:45 24.55941 39.70692 2116 ft 97 kts 169°
2026-04-23 16:46 24.55461 39.70800 2115 ft 40 kts 170°
2026-04-23 16:46 24.55367 39.70821 2114 ft 1 kts 179°
2026-04-23 16:46 24.55353 39.70820 2114 ft 4 kts 182°
2026-04-23 16:46 24.55326 39.70818 2114 ft 1 kts 187°
2026-04-23 16:47 24.55312 39.70816 2114 ft 3 kts 188°
2026-04-23 16:47 24.55303 39.70815 2114 ft 0 kts 188°
2026-04-23 16:47 24.55302 39.70814 2114 ft 1 kts 188°
2026-04-23 16:47 24.55297 39.70813 2114 ft 0 kts 189°
2026-04-23 16:48 24.55296 39.70813 2114 ft 1 kts 190°
2026-04-23 16:48 24.55294 39.70813 2114 ft 0 kts 193°
2026-04-23 16:50 24.55269 39.70811 2114 ft 12 kts 185°
2026-04-23 16:50 24.55209 39.70802 2114 ft 5 kts 189°
2026-04-23 16:50 24.55164 39.70789 2115 ft 8 kts 201°
2026-04-23 16:50 24.55115 39.70755 2114 ft 1 kts 222°
2026-04-23 16:51 24.55104 39.70742 2113 ft 4 kts 230°
2026-04-23 16:51 24.55086 39.70707 2112 ft 7 kts 247°
2026-04-23 16:51 24.55078 39.70650 2111 ft 9 kts 271°
2026-04-23 16:51 24.55098 39.70583 2111 ft 7 kts 299°
2026-04-23 16:52 24.55098 39.70582 2111 ft 0 kts 300°
2026-04-23 16:52 24.55097 39.70583 2111 ft 0 kts 298°
2026-04-23 16:52 24.55097 39.70584 2111 ft 0 kts 296°
2026-04-23 16:52 24.55097 39.70585 2111 ft 0 kts 295°
2026-04-23 16:53 24.55096 39.70586 2111 ft 0 kts 293°
2026-04-23 16:53 24.55096 39.70587 2111 ft 0 kts 292°
2026-04-23 16:53 24.55095 39.70587 2111 ft 0 kts 291°
2026-04-23 16:53 24.55095 39.70588 2111 ft 0 kts 291°
2026-04-23 16:54 24.55095 39.70589 2111 ft 0 kts 290°
2026-04-23 16:54 24.55118 39.70548 2111 ft 10 kts 309°
2026-04-23 16:54 24.55177 39.70512 2111 ft 10 kts 346°
2026-04-23 16:54 24.55249 39.70520 2111 ft 12 kts 16°
2026-04-23 16:55 24.55338 39.70598 2111 ft 21 kts 59°
2026-04-23 16:55 24.55353 39.70738 2115 ft 19 kts 105°
2026-04-23 16:55 24.55298 39.70867 2114 ft 19 kts 123°
2026-04-23 16:55 24.55214 39.70975 2113 ft 10 kts 126°
2026-04-23 16:56 24.55210 39.70982 2113 ft 1 kts 120°
2026-04-23 16:56 24.55205 39.71004 2113 ft 4 kts 105°
2026-04-23 16:56 24.55210 39.71044 2113 ft 7 kts 67°
2026-04-23 16:56 24.55226 39.71102 2111 ft 9 kts 75°
2026-04-23 16:57 24.55254 39.71193 2110 ft 14 kts 54°
2026-04-23 16:57 24.55300 39.71251 2110 ft 5 kts 58°
2026-04-23 16:57 24.55313 39.71295 2110 ft 7 kts 78°
2026-04-23 16:57 24.55315 39.71304 2110 ft 1 kts 79°
2026-04-23 16:58 24.55315 39.71306 2110 ft 0 kts 78°